Time,TemperatureF,DewpointF,PressureIn,WindDirection,WindDirectionDegrees,WindSpeedMPH,WindSpeedGustMPH,Humidity,HourlyPrecipIn,Conditions,Clouds,dailyrainin,SoftwareType,DateUTC
2014-04-16 00:01:00,36.0,25.1,30.09,North,349,4.0,11.0,64,0.00,,,0.00,WUHU216DAVISVP2,2014-04-16 04:01:00,
2014-04-16 00:02:00,35.9,25.0,30.09,North,6,2.0,11.0,64,0.00,,,0.00,WUHU216DAVISVP2,2014-04-16 04:02:00,
2014-04-16 00:07:00,35.7,25.2,30.09,NE,43,1.0,9.0,65,0.00,,,0.00,WUHU216DAVISVP2,2014-04-16 04:07:00,
2014-04-16 00:12:00,35.4,25.6,30.09,NE,34,2.0,8.0,67,0.00,,,0.00,WUHU216DAVISVP2,2014-04-16 04:12:00,
2014-04-16 00:17:00,35.2,25.4,30.09,NNE,25,2.0,6.0,67,0.00,,,0.00,WUHU216DAVISVP2,2014-04-16 04:17:00,
2014-04-16 00:22:00,35.1,24.9,30.11,WNW,302,4.0,6.0,66,0.00,,,0.00,WUHU216DAVISVP2,2014-04-16 04:22:00,
2014-04-16 00:27:00,34.9,25.0,30.11,NW,322,2.0,6.0,67,0.00,,,0.00,WUHU216DAVISVP2,2014-04-16 04:27:00,
2014-04-16 00:32:00,34.8,24.7,30.11,NNW,336,3.0,6.0,66,0.00,,,0.00,WUHU216DAVISVP2,2014-04-16 04:32:00,
2014-04-16 00:37:00,34.8,24.3,30.12,NNE,25,3.0,6.0,65,0.00,,,0.00,WUHU216DAVISVP2,2014-04-16 04:37:00,
2014-04-16 00:42:00,34.8,24.7,30.12,NNW,342,1.0,6.0,66,0.00,,,0.00,WUHU216DAVISVP2,2014-04-16 04:42:00,
2014-04-16 00:47:00,34.6,24.5,30.12,North,358,1.0,6.0,66,0.00,,,0.00,WUHU216DAVISVP2,2014-04-16 04:47:00,
2014-04-16 00:52:00,34.5,24.4,30.12,NW,326,1.0,6.0,66,0.00,,,0.00,WUHU216DAVISVP2,2014-04-16 04:52:00,
2014-04-16 00:57:00,34.4,24.3,30.11,NW,304,3.0,6.0,66,0.00,,,0.00,WUHU216DAVISVP2,2014-04-16 04:57:00,
2014-04-16 01:02:00,34.4,24.6,30.12,NNW,331,1.0,6.0,67,0.00,,,0.00,WUHU216DAVISVP2,2014-04-16 05:02:00,
2014-04-16 01:07:00,34.2,24.5,30.13,NW,323,1.0,6.0,67,0.00,,,0.00,WUHU216DAVISVP2,2014-04-16 05:07:00,
2014-04-16 01:12:00,34.3,24.2,30.14,NNE,21,1.0,7.0,66,0.00,,,0.00,WUHU216DAVISVP2,2014-04-16 05:12:00,
2014-04-16 01:17:00,34.3,24.2,30.14,NNW,333,5.0,7.0,66,0.00,,,0.00,WUHU216DAVISVP2,2014-04-16 05:17:00,
2014-04-16 01:22:00,34.5,23.6,30.14,NNW,340,3.0,13.0,64,0.00,,,0.00,WUHU216DAVISVP2,2014-04-16 05:22:00,
2014-04-16 01:27:00,34.5,23.6,30.14,NNW,338,3.0,13.0,64,0.00,,,0.00,WUHU216DAVISVP2,2014-04-16 05:27:00,
2014-04-16 01:32:00,34.5,23.6,30.14,NW,318,3.0,12.0,64,0.00,,,0.00,WUHU216DAVISVP2,2014-04-16 05:32:00,
2014-04-16 01:37:00,34.4,23.9,30.15,West,267,2.0,12.0,65,0.00,,,0.00,WUHU216DAVISVP2,2014-04-16 05:37:00,
2014-04-16 01:42:00,34.2,24.1,30.16,NW,314,1.0,8.0,66,0.00,,,0.00,WUHU216DAVISVP2,2014-04-16 05:42:00,
2014-04-16 01:47:00,34.1,23.6,30.17,West,280,1.0,8.0,65,0.00,,,0.00,WUHU216DAVISVP2,2014-04-16 05:47:00,
2014-04-16 01:52:00,34.0,23.5,30.17,West,280,0.0,7.0,65,0.00,,,0.00,WUHU216DAVISVP2,2014-04-16 05:52:00,
2014-04-16 01:57:00,33.7,24.3,30.17,West,276,1.0,5.0,68,0.00,,,0.00,WUHU216DAVISVP2,2014-04-16 05:57:00,
2014-04-16 02:02:00,33.3,23.9,30.17,North,6,0.0,4.0,68,0.00,,,0.00,WUHU216DAVISVP2,2014-04-16 06:02:00,
2014-04-16 02:07:00,33.2,23.8,30.17,West,269,0.0,3.0,68,0.00,,,0.00,WUHU216DAVISVP2,2014-04-16 06:07:00,
2014-04-16 02:12:00,33.1,23.7,30.17,ENE,58,0.0,2.0,68,0.00,,,0.00,WUHU216DAVISVP2,2014-04-16 06:12:00,
2014-04-16 02:17:00,33.2,23.5,30.17,NNW,338,1.0,2.0,67,0.00,,,0.00,WUHU216DAVISVP2,2014-04-16 06:17:00,
2014-04-16 02:22:00,33.3,23.6,30.17,NW,314,2.0,3.0,67,0.00,,,0.00,WUHU216DAVISVP2,2014-04-16 06:22:00,
2014-04-16 02:27:00,33.3,23.6,30.18,NW,326,0.0,5.0,67,0.00,,,0.00,WUHU216DAVISVP2,2014-04-16 06:27:00,
2014-04-16 02:32:00,33.1,23.3,30.17,WNW,292,0.0,5.0,67,0.00,,,0.00,WUHU216DAVISVP2,2014-04-16 06:32:00,
2014-04-16 02:37:00,33.0,24.0,30.18,NNW,328,3.0,5.0,69,0.00,,,0.00,WUHU216DAVISVP2,2014-04-16 06:37:00,
2014-04-16 02:42:00,32.9,23.6,30.18,NE,41,0.0,5.0,68,0.00,,,0.00,WUHU216DAVISVP2,2014-04-16 06:42:00,
2014-04-16 02:47:00,32.9,23.6,30.18,NNE,16,3.0,5.0,68,0.00,,,0.00,WUHU216DAVISVP2,2014-04-16 06:47:00,
2014-04-16 02:52:00,32.8,23.4,30.18,NW,318,0.0,5.0,68,0.00,,,0.00,WUHU216DAVISVP2,2014-04-16 06:52:00,
2014-04-16 02:57:00,32.6,23.3,30.19,East,101,0.0,5.0,68,0.00,,,0.00,WUHU216DAVISVP2,2014-04-16 06:57:00,
2014-04-16 03:02:00,32.5,23.5,30.19,East,101,0.0,3.0,69,0.00,,,0.00,WUHU216DAVISVP2,2014-04-16 07:02:00,
2014-04-16 03:07:00,32.2,23.2,30.20,East,100,0.0,2.0,69,0.00,,,0.00,WUHU216DAVISVP2,2014-04-16 07:07:00,
2014-04-16 03:12:00,32.1,23.5,30.20,NW,315,0.0,1.0,70,0.00,,,0.00,WUHU216DAVISVP2,2014-04-16 07:12:00,
2014-04-16 03:17:00,31.8,23.2,30.21,NW,315,0.0,1.0,70,0.00,,,0.00,WUHU216DAVISVP2,2014-04-16 07:17:00,
2014-04-16 03:22:00,31.6,23.7,30.21,North,349,0.0,1.0,72,0.00,,,0.00,WUHU216DAVISVP2,2014-04-16 07:22:00,
2014-04-16 03:27:00,31.7,23.8,30.21,NNW,348,0.0,1.0,72,0.00,,,0.00,WUHU216DAVISVP2,2014-04-16 07:27:00,
2014-04-16 03:32:00,31.5,23.9,30.21,NNW,333,1.0,3.0,73,0.00,,,0.00,WUHU216DAVISVP2,2014-04-16 07:32:00,
2014-04-16 03:37:00,31.4,23.5,30.22,NW,319,0.0,3.0,72,0.00,,,0.00,WUHU216DAVISVP2,2014-04-16 07:37:00,
2014-04-16 03:42:00,31.3,23.7,30.22,East,89,0.0,3.0,73,0.00,,,0.00,WUHU216DAVISVP2,2014-04-16 07:42:00,
2014-04-16 03:47:00,31.2,23.9,30.22,NNE,13,1.0,3.0,74,0.00,,,0.00,WUHU216DAVISVP2,2014-04-16 07:47:00,
2014-04-16 03:52:00,31.2,23.6,30.22,WNW,302,1.0,3.0,73,0.00,,,0.00,WUHU216DAVISVP2,2014-04-16 07:52:00,
2014-04-16 03:57:00,31.3,23.7,30.22,WNW,292,0.0,4.0,73,0.00,,,0.00,WUHU216DAVISVP2,2014-04-16 07:57:00,
2014-04-16 04:02:00,31.1,23.5,30.23,South,178,0.0,4.0,73,0.00,,,0.00,WUHU216DAVISVP2,2014-04-16 08:02:00,
2014-04-16 04:07:00,30.7,23.8,30.24,South,177,0.0,4.0,75,0.00,,,0.00,WUHU216DAVISVP2,2014-04-16 08:07:00,
2014-04-16 04:12:00,30.6,23.7,30.23,NW,307,1.0,4.0,75,0.00,,,0.00,WUHU216DAVISVP2,2014-04-16 08:12:00,
2014-04-16 04:17:00,30.4,23.8,30.24,SSE,160,0.0,2.0,76,0.00,,,0.00,WUHU216DAVISVP2,2014-04-16 08:17:00,
2014-04-16 04:22:00,30.2,24.2,30.25,SW,229,0.0,2.0,78,0.00,,,0.00,WUHU216DAVISVP2,2014-04-16 08:22:00,
2014-04-16 04:27:00,29.9,24.8,30.25,WNW,293,1.0,2.0,81,0.00,,,0.00,WUHU216DAVISVP2,2014-04-16 08:27:00,
2014-04-16 04:32:00,29.8,24.7,30.25,WNW,294,0.0,2.0,81,0.00,,,0.00,WUHU216DAVISVP2,2014-04-16 08:32:00,
2014-04-16 04:37:00,29.7,24.0,30.25,SE,143,0.0,2.0,79,0.00,,,0.00,WUHU216DAVISVP2,2014-04-16 08:37:00,
2014-04-16 04:42:00,29.5,24.4,30.25,SE,144,0.0,1.0,81,0.00,,,0.00,WUHU216DAVISVP2,2014-04-16 08:42:00,
2014-04-16 04:46:00,29.5,24.4,30.25,NNE,20,0.0,1.0,81,0.00,,,0.00,WUHU216DAVISVP2,2014-04-16 08:46:00,
2014-04-16 04:51:00,29.8,24.1,30.25,NE,39,0.0,1.0,79,0.00,,,0.00,WUHU216DAVISVP2,2014-04-16 08:51:00,
2014-04-16 04:56:00,29.8,24.7,30.26,NE,47,1.0,1.0,81,0.00,,,0.00,WUHU216DAVISVP2,2014-04-16 08:56:00,
2014-04-16 05:01:00,29.7,24.6,30.26,ENE,61,0.0,1.0,81,0.00,,,0.00,WUHU216DAVISVP2,2014-04-16 09:01:00,
2014-04-16 05:06:00,29.8,24.7,30.26,ENE,67,1.0,1.0,81,0.00,,,0.00,WUHU216DAVISVP2,2014-04-16 09:06:00,
2014-04-16 05:11:00,29.8,24.7,30.26,NE,39,0.0,2.0,81,0.00,,,0.00,WUHU216DAVISVP2,2014-04-16 09:11:00,
2014-04-16 05:16:00,29.7,25.2,30.27,ENE,61,1.0,2.0,83,0.00,,,0.00,WUHU216DAVISVP2,2014-04-16 09:16:00,
2014-04-16 05:21:00,29.6,25.3,30.27,ENE,61,0.0,1.0,84,0.00,,,0.00,WUHU216DAVISVP2,2014-04-16 09:21:00,
2014-04-16 05:26:00,29.2,24.9,30.28,ENE,61,0.0,1.0,84,0.00,,,0.00,WUHU216DAVISVP2,2014-04-16 09:26:00,
2014-04-16 05:31:00,28.9,24.9,30.28,ENE,61,0.0,1.0,85,0.00,,,0.00,WUHU216DAVISVP2,2014-04-16 09:31:00,
2014-04-16 05:36:00,28.7,25.0,30.28,ENE,61,0.0,1.0,86,0.00,,,0.00,WUHU216DAVISVP2,2014-04-16 09:36:00,
2014-04-16 05:41:00,28.8,24.9,30.28,NE,49,0.0,1.0,85,0.00,,,0.00,WUHU216DAVISVP2,2014-04-16 09:41:00,
2014-04-16 05:46:00,28.9,25.0,30.29,East,87,0.0,1.0,85,0.00,,,0.00,WUHU216DAVISVP2,2014-04-16 09:46:00,
2014-04-16 05:51:00,28.8,24.6,30.29,ENE,75,1.0,1.0,84,0.00,,,0.00,WUHU216DAVISVP2,2014-04-16 09:51:00,
2014-04-16 05:56:00,29.2,24.9,30.30,ENE,73,0.0,1.0,84,0.00,,,0.00,WUHU216DAVISVP2,2014-04-16 09:56:00,
2014-04-16 06:01:00,29.4,24.9,30.30,North,11,0.0,1.0,83,0.00,,,0.00,WUHU216DAVISVP2,2014-04-16 10:01:00,
2014-04-16 06:06:00,29.4,24.6,30.30,North,11,0.0,1.0,82,0.00,,,0.00,WUHU216DAVISVP2,2014-04-16 10:06:00,
2014-04-16 06:11:00,29.3,24.8,30.31,NNW,346,0.0,2.0,83,0.00,,,0.00,WUHU216DAVISVP2,2014-04-16 10:11:00,
2014-04-16 06:16:00,29.4,24.6,30.31,NNE,15,0.0,2.0,82,0.00,,,0.00,WUHU216DAVISVP2,2014-04-16 10:16:00,
2014-04-16 06:21:00,29.2,24.4,30.32,NNE,15,0.0,2.0,82,0.00,,,0.00,WUHU216DAVISVP2,2014-04-16 10:21:00,
2014-04-16 06:26:00,28.9,24.4,30.32,NNE,15,0.0,2.0,83,0.00,,,0.00,WUHU216DAVISVP2,2014-04-16 10:26:00,
2014-04-16 06:31:00,28.8,24.6,30.33,NNE,15,0.0,1.0,84,0.00,,,0.00,WUHU216DAVISVP2,2014-04-16 10:31:00,
2014-04-16 06:36:00,28.7,24.8,30.33,NNE,16,0.0,0.0,85,0.00,,,0.00,WUHU216DAVISVP2,2014-04-16 10:36:00,
2014-04-16 06:41:00,28.6,24.6,30.33,NNE,16,0.0,0.0,85,0.00,,,0.00,WUHU216DAVISVP2,2014-04-16 10:41:00,
2014-04-16 06:46:00,28.7,24.7,30.34,ENE,77,1.0,2.0,85,0.00,,,0.00,WUHU216DAVISVP2,2014-04-16 10:46:00,
2014-04-16 06:51:00,28.8,24.8,30.34,ENE,74,0.0,2.0,85,0.00,,,0.00,WUHU216DAVISVP2,2014-04-16 10:51:00,
2014-04-16 06:56:00,29.2,24.9,30.34,NNE,25,3.0,3.0,84,0.00,,,0.00,WUHU216DAVISVP2,2014-04-16 10:56:00,
2014-04-16 07:01:00,29.4,24.9,30.34,NNW,342,1.0,3.0,83,0.00,,,0.00,WUHU216DAVISVP2,2014-04-16 11:01:00,